Starlink 5190

operational
NORAD ID: 54092 Int'l Des: 2022-136 Owner: SPXS Country: US Constellation: starlink
LEOCIRCULAR

About Starlink 5190

Description loading...

Live Position

Loading 3D Globe...

Upcoming Passes

Altitude History

Altitude vs Time

uPlot chart will show altitude changes over time

Two-Line Element Set

1 54092U 22136AT 25306.08793000 .00033663 00000-0 56048-3 0 9994
2 54092 53.1842 73.0254 0002728 288.9978 71.0737 15.51735687169320
Epoch: Nov 2, 2025 • Age: 42 hours

Current Status

Altitude 417.4 km
Velocity 7.67 km/s
Sub-Earth Point 43.24°N, 148.68°W
Launch Date Oct 20, 2022
Age 3 years
Type internet

Technical Details

Classification Payload
Mass 305.00 kg
Dry Mass 290.00 kg
Total Mass 305.00 kg
Length 0.20 m
Diameter 2.80 m
Span 9.00 m
Shape Box + pan
Manufacturer SPXS
Bus Type Starlink
Phase Status In Orbit
Owner/State SPXS/US

Large Constellations

Loading constellations...